Location: Christianberg
(48.9086°N, 14.0209°E)
Time: 22:18:59
(UTC+00:00)

NOSS 3-1 (C) - Pass Details

Date: 20 June 2021
Orbit: 722 x 1486 km, 63.4° (Epoch: 30 July)

Event Time Altitude Azimuth Distance (km) Brightness Sun altitude
Exits shadow 00:31:15 10° 249° (WSW) 2,434 5.2 -15.2°
Reaches altitude 10° 00:31:21 10° 250° (WSW) 2,402 5.2 -15.2°
Maximum altitude 00:36:41 48° 324° (NW) 1,179 4.2 -14.8°
Drops below altitude 10° 00:43:03 10° 38° (NE) 2,861 7.2 -14.4°
Sets 00:46:04 0° 44° (NE) 3,947 8.1 -14.2°
